User: anonymous   Login
Location: Unspecified
(0.0000°N, 0.0000°E)
Time: 11:26:31
(UTC+00:00)
Language:

Vela 3B - Orbit

View from above orbital plane
View from above orbital plane
View from above satellite
View from above satellite

Ground track
Ground track

The orbit data is extracted from the following two-line orbital elements,

1 01459U 65058B   14305.12765171 -.00000697  00000-0  00000+0 0   146
2 01459 002.4557 030.7138 4459165 304.7449 001.6050 00.21415826 38957
Epoch (UTC): 01 November 2014 03:03:49
Eccentricity: 0.4459165
inclination: 2.4557°
perigee height: 59007 km
apogee height: 164250 km
right ascension of ascending node: 30.7138°
argument of perigee: 304.7449°
revolutions per day: 0.21415826
mean anomaly at epoch: 1.6050°
orbit number at epoch: 3895

The dashed part of the orbit path shows where the satellite is in the earth's shadow,  

DLR